Riverside March, CA

5:57 AM PDT on August 23, 2017 (GMT -0700)
March Air Reserve Base

Weather History for KRIV - January, 2014

Change the Weather History Date:

Wednesday, January 1, 2014

  Actual Average Record
Temperature  
Mean Temperature 54 °F -  
Max Temperature 77 °F 64 °F 83 °F (2012)
Min Temperature 30 °F 39 °F 23 °F (2015)
Degree Days  
Heating Degree Days 12    
Growing Degree Days 4 (Base 50)    
Moisture  
Dew Point 20 °F    
Average Humidity 32    
Maximum Humidity 66    
Minimum Humidity 9    
Precipitation  
Precipitation 0.00 in - - ()
Sea Level Pressure  
Sea Level Pressure 30.10 in    
Wind  
Wind Speed 2 mph (NNW)    
Max Wind Speed 15 mph    
Max Gust Speed 18 mph    
Visibility 10 miles    
Events      
Averages and records for this station are not official NWS values.
T = Trace of Precipitation, MM = Missing Value Source: NWS Daily Summary

Daily Weather History Graph

Daily Weather History Graph

Search for Another Location

Airport or City:

Trip Planner

Search our weather history database for the weather conditions in past years. The results will help you decide how hot, cold, wet, or windy it might be!

Date:

Astronomy

Jan. 01, 2014 Rise Set
Actual Time 6:54 AM PST 4:51 PM PST
Civil Twilight 6:26 AM PST 5:18 PM PST
Nautical Twilight 5:55 AM PST 5:50 PM PST
Astronomical Twilight 5:25 AM PST 6:20 PM PST
Moon 6:51 AM PST (1/1) 5:38 PM PST (1/1)
Length of Visible Light 10h 52m
Length of Day
9h 57m
New Moon, 0% of the Moon is Illuminated
Jan 1
New Moon
Jan 7
First Quarter
Jan 15
Full
Jan 23
Last Quarter
Jan 30
New

Hourly Weather History & Observations

Time (PST) Temp. Windchill Dew Point Humidity Pressure Visibility Wind Dir Wind Speed Gust Speed Precip Events Conditions
12:58 AM 35.1 °F - 21.4 °F 57% 30.11 in 10.0 mi Calm Calm - N/A   Clear
1:58 AM 38.5 °F - 23.0 °F 54% 30.12 in 10.0 mi Calm Calm - N/A   Clear
2:58 AM 36.9 °F - 23.2 °F 58% 30.10 in 10.0 mi Calm Calm - N/A   Clear
3:58 AM 34.0 °F - 21.4 °F 60% 30.11 in 10.0 mi Calm Calm - N/A   Clear
4:58 AM 31.6 °F - 19.2 °F 60% 30.12 in 10.0 mi Calm Calm - N/A   Clear
5:58 AM 33.3 °F - 21.2 °F 61% 30.13 in 10.0 mi Calm Calm - N/A   Clear
6:58 AM 30.9 °F - 20.7 °F 66% 30.13 in 10.0 mi NW 2.3 mph - N/A   Clear
7:58 AM 40.1 °F 36.1 °F 25.9 °F 57% 30.14 in 10.0 mi SE 5.8 mph - N/A   Clear
8:58 AM 46.4 °F - 24.3 °F 42% 30.15 in 10.0 mi Calm Calm - N/A   Clear
9:58 AM 58.1 °F - 23.7 °F 27% 30.14 in 10.0 mi Variable 1.2 mph - N/A   Clear
10:58 AM 67.8 °F - 20.7 °F 17% 30.12 in 10.0 mi NNE 2.3 mph - N/A   Clear
11:58 AM 75.2 °F - 12.4 °F 9% 30.08 in 10.0 mi North 3.5 mph - N/A   Clear
12:55 PM 77.2 °F - 12.4 °F 9% 30.07 in 10.0 mi ENE 15.0 mph 18.4 mph N/A   Clear
1:55 PM 77.5 °F - 15.3 °F 10% 30.06 in 10.0 mi NNW 5.8 mph - N/A   Clear
1:58 PM 77.5 °F - 15.3 °F 10% 30.05 in 10.0 mi Variable 4.6 mph - N/A   Clear
2:58 PM 76.8 °F - 20.5 °F 12% 30.06 in 10.0 mi NNW 8.1 mph - N/A   Clear
3:58 PM 74.8 °F - 20.5 °F 13% 30.06 in 10.0 mi NNW 3.5 mph - N/A   Clear
4:58 PM 66.6 °F - 20.1 °F 17% 30.07 in 10.0 mi NW 6.9 mph - N/A   Clear
5:58 PM 61.7 °F - 18.7 °F 19% 30.10 in 10.0 mi West 2.3 mph - N/A   Clear
6:58 PM 56.7 °F - 20.3 °F 24% 30.11 in 10.0 mi NNW 1.2 mph - N/A   Partly Cloudy
7:58 PM 60.4 °F - 19.2 °F 20% 30.10 in 10.0 mi NNE 6.9 mph - N/A   Clear
8:58 PM 61.5 °F - 18.9 °F 19% 30.12 in 10.0 mi NW 3.5 mph - N/A   Clear
9:58 PM 55.0 °F - 18.5 °F 24% 30.11 in 10.0 mi Calm Calm - N/A   Partly Cloudy
10:58 PM 48.6 °F - 19.4 °F 32% 30.11 in 10.0 mi Calm Calm - N/A   Clear
11:58 PM 56.5 °F - 17.6 °F 22% 30.09 in 10.0 mi NE 8.1 mph - N/A   Clear